weather.gov     
National Weather Service

Regional Weather Roundup
NWS Homepage
This page is being discontinued on March 12, 2014.
The same data is available at this site. Please update your bookmarks.
Thank you, and we apologize for the inconvenience.
Please send an email to SR-SRH.Webmaster@noaa.gov with any concerns.


Current Version
Previous Version:    01  02  03  04  05  06  07  08  09  10  11  12  13  14  15  16  17  18  19  20  21  22  23  24  25  26  
[Printable]
160
ASUS41 KLWX 310310
RWRLWX

REGIONAL WEATHER ROUNDUP
NATIONAL WEATHER SERVICE BALTIMORE MD/WASHINGTON DC
1000 PM EST FRI JAN 30 2015

Note: "FAIR" indicates few or no clouds below 12,000 feet
with no significant weather and/or obstructions to visibility.
 TC=TEMPERATURE CELSIUS

 * =Non NWS site. Station does not report precipitation (e.g. rain,
    snow, etc.), thunder, or fog.

DCZ001-MDZ009-015-VAZ040>042-051-053>054-310400-
WASHINGTON METRO

CITY           SKY/WX    TMP DP  RH WIND       PRES   REMARKS
WASHINGTON NAT CLEAR     25   4  40 NW17G30   30.26S WCI  12
DULLES         PTCLDY    21   4  47 NW25G33   30.26R WCI   4
ANDREWS AFB    CLEAR     22   5  46 NW21G29   30.22R WCI   7
FT BELVOIR     CLEAR     23   4  45 NW17G25   30.28R WCI   9
QUANTICO       CLEAR     24   4  42 N21G37    30.30R WCI   9
COLLEGE PARK*  CLEAR     25   7  46 NW13G28   30.25S WCI  13
LEESBURG*      CLEAR     23  10  58 NW22G35   30.26S WCI   8
MANASSAS*      CLEAR     23   9  54 NW17G26   30.28  WCI   9
GAITHERSBURG*  CLEAR     19   5  53 NW15G26   30.26S WCI   5

$$

MDZ006>007-011-014-310400-
BALTIMORE METRO

CITY           SKY/WX    TMP DP  RH WIND       PRES   REMARKS
BWI AIRPORT    CLEAR     22   6  50 NW13G30   30.21R WCI  10
MD SCIENCE CTR   N/A     23   4  44 MISG      30.22R
ANNAPOLIS      CLEAR     25   9  50 NW16G24   30.22R WCI  12
FORT MEADE*    CLEAR     23   9  54 NW14G22   30.26R WCI  11

$$

MDZ012-015-019>023-310400-
MARYLAND EASTERN SHORE

CITY           SKY/WX    TMP DP  RH WIND       PRES   REMARKS
OCEAN CITY     CLEAR     27  11  51 NW24G35   30.12R WCI  12
SALISBURY      CLEAR     28  10  46 NW26G39   30.15R WCI  13
BAY BRIDGE AP*   N/A     27   9  46 NW18G33   30.22R WCI  13
EASTON*        CLEAR     27  12  54 NW23G31   30.22R WCI  12

$$

MDZ017>025-310400-
SOUTHERN MARYLAND

CITY           SKY/WX    TMP DP  RH WIND       PRES   REMARKS
PATUXENT RIVER CLEAR     25   8  48 NW31G40   30.20R WCI   8
ST INIGOES     CLEAR     26   6  42 NW18G31   30.21R WCI  13
LEONARDTOWN*   CLEAR     27   5  39 NW17G28   30.23R WCI  14

$$

MDZ003>005-310400-
NORTH CENTRAL MARYLAND

CITY           SKY/WX    TMP DP  RH WIND       PRES   REMARKS
FREDERICK*     CLEAR     23   5  46 NW8       30.29R WCI  14
HAGERSTOWN APT PTCLDY    19   6  57 NW21      30.25S WCI   3
WESTMINSTER*   PTCLDY    18   3  53 NW14G23   30.19S WCI   4

$$

MDZ501>502-310400-
WESTERN MARYLAND

CITY           SKY/WX    TMP DP  RH WIND       PRES   REMARKS
OAKLAND*       FOG        7 N/A N/A NW7       30.16S VSB 1
CUMBERLAND*    CLOUDY    19   3  49 W8        30.38R WCI   9

$$

VAZ025>031-310400-
SHENANDOAH VALLEY

CITY           SKY/WX    TMP DP  RH WIND       PRES   REMARKS
WINCHESTER*    CLEAR     21   5  49 NW22G28   30.27S WCI   5
FRONT ROYAL*   FAIR      21   9  58 CALM      30.26S
LURAY*         FAIR      25  10  54 CALM      30.26S
NEW MARKET*    FAIR      21   5  50 N3        30.27F
STAUNTON*      CLEAR     24   5  45 N5        30.27R
WAYNESBORO*    FAIR      21   5  49 W10G18    30.22S WCI  10

$$

WVZ021-048>050-054>055-310400-
EASTERN WEST VIRGINIA PANHANDLE

CITY           SKY/WX    TMP DP  RH WIND       PRES   REMARKS
MARTINSBURG    PTCLDY    20   3  48 NW14G21   30.29F WCI   7
PETERSBURG*    CLEAR     21   4  46 NW10      30.34S WCI  10

$$

VAZ036>039-050-310400-
CENTRAL FOOTHILLS

CITY           SKY/WX    TMP DP  RH WIND       PRES   REMARKS
CHARLOTTESVILL CLEAR     27   4  37 VRB3      30.25R
CULPEPER*      CLEAR     25   9  50 N13       30.26S WCI  13
ORANGE*        CLEAR     27   9  46 NW8       30.27S WCI  18
GORDONSVILLE*  FAIR      26   5  40 NW3       30.24S
WARRENTON*     FAIR      24  11  58 NW8G23    30.27R WCI  15

$$

VAZ055>057-310400-
NORTH AND CENTRAL PIEDMONT

CITY           SKY/WX    TMP DP  RH WIND       PRES   REMARKS
FREDERICKSBRG* CLEAR     27   8  44 N14G20    30.27S WCI  15
STAFFORD*      CLEAR     24   3  41 NW15G32   30.30S WCI  11

$$

NCZ024-NYZ072-PAZ021-071-VAZ022-071-310400-
OTHER REGIONAL OBSERVATIONS

CITY           SKY/WX    TMP DP  RH WIND       PRES   REMARKS
NEW YORK CITY  CLEAR     21   5  50 NW16G30   30.02R WCI   7
PHILADELPHIA   PTCLDY    25   5  42 NW26G38   30.13R WCI   9
PITTSBURGH     FLURRIES  13   7  77 NW13      30.38R WCI  -2
ROANOKE        CLEAR     25   7  46 NW14G21   30.29S WCI  13
RICHMOND       CLEAR     29   9  43 N13       30.25R WCI  19
RALEIGH        PTCLDY    32   7  35 NW8       30.29R WCI  25

$$

ANZ530>537-310400-
MARINE OBSERVATIONS

STATION/POSITION TIME  TEMP    WIND        PRES
                       AIR SEA DIR/SP/G
                 (UTC) (F)     (DEG/KT/KT) (MB)
THOMAS PT LIGHT  0300   24 36  320/ 24/ 29 1023.7R
BALT KEY BRIDGE  0300   25     290/ 27/ 32 1022.4R
COVE POINT       0300   25     340/ 29/ 33 1022.5R
LEWISETTA        0300   27 36  320/ 26/ 33 1023.5R
SOLOMONS ISLAND  0300      37                N/A
PINEY POINT      0300          340/ 35/ 39   N/A

$$





U.S. Dept. of Commerce
NOAA National Weather Service
1325 East West Highway
Silver Spring, MD 20910
E-mail: w-nws.webmaster@noaa.gov
Page last modified: May 16, 2007
NATIONAL WEATHER SERVICE: for Safety, for Work, for Fun - FOR LIFE